EJU69MZ EDDB-LEBL

Flight info

Callsign EJU69MZ
Flight time 2h 18m
Altitude 37000
Route KISUC1Q/06R KISUC Z117 ORTAG DCT BAMKI DCT IBAGA DCT DKB DCT TEDGO N869 NATOR DCT LUTIX DCT BENOT DCT NEMOS DCT GEVEA DCT INCUS DCT BALSI DCT RETNO DCT TUPOX DCT MTG DCT DIVKO DCT NILDU DCT BISBA
Aircraft A319/M-SDE2E3FGIJ1RWXYZ/LB1

Departure

Time 2026-05-06 13:00
Airport Berlin Brandenburg Airport (EDDB)

Arrival

Time 2026-05-06 15:18
Airport Josep Tarradellas Barcelona-El Prat Airport (LEBL)
Time Latitude Longitude Altitude Speed Heading
2026-05-06 12:25 52.36174 13.50729 157 ft 0 kts 69°
2026-05-06 12:29 52.36389 13.50597 155 ft 0 kts 77°
2026-05-06 12:31 52.36211 13.50706 155 ft 0 kts 69°
2026-05-06 12:47 52.36210 13.50703 154 ft 1 kts 69°
2026-05-06 12:48 52.36204 13.50678 154 ft 3 kts 69°
2026-05-06 12:48 52.36197 13.50647 154 ft 3 kts 69°
2026-05-06 12:48 52.36190 13.50617 154 ft 3 kts 76°
2026-05-06 12:48 52.36188 13.50586 154 ft 3 kts 103°
2026-05-06 12:49 52.36195 13.50560 154 ft 3 kts 147°
2026-05-06 12:49 52.36201 13.50554 154 ft 0 kts 159°
2026-05-06 12:52 52.36200 13.50554 154 ft 1 kts 159°
2026-05-06 12:52 52.36161 13.50580 154 ft 10 kts 158°
2026-05-06 12:52 52.36094 13.50623 154 ft 10 kts 158°
2026-05-06 12:52 52.36027 13.50666 154 ft 10 kts 158°
2026-05-06 12:53 52.35961 13.50709 154 ft 10 kts 159°
2026-05-06 12:53 52.35895 13.50749 154 ft 10 kts 160°
2026-05-06 12:53 52.35831 13.50788 154 ft 10 kts 158°
2026-05-06 12:53 52.35769 13.50820 154 ft 9 kts 178°
2026-05-06 12:54 52.35719 13.50776 154 ft 9 kts 228°
2026-05-06 12:54 52.35689 13.50676 154 ft 12 kts 249°
2026-05-06 12:54 52.35656 13.50539 154 ft 13 kts 249°
2026-05-06 12:54 52.35621 13.50391 154 ft 16 kts 248°
2026-05-06 12:55 52.35579 13.50214 154 ft 16 kts 249°
2026-05-06 12:55 52.35545 13.50067 154 ft 12 kts 249°
2026-05-06 12:55 52.35516 13.49946 154 ft 11 kts 249°
2026-05-06 12:55 52.35485 13.49818 154 ft 15 kts 249°
2026-05-06 12:56 52.35442 13.49636 154 ft 19 kts 248°
2026-05-06 12:56 52.35388 13.49414 154 ft 23 kts 248°
2026-05-06 12:56 52.35327 13.49152 154 ft 26 kts 249°
2026-05-06 12:56 52.35261 13.48876 154 ft 24 kts 249°
2026-05-06 12:57 52.35205 13.48642 154 ft 19 kts 249°
2026-05-06 12:57 52.35171 13.48554 154 ft 7 kts 216°
2026-05-06 12:57 52.35128 13.48562 154 ft 7 kts 144°
2026-05-06 12:57 52.35105 13.48636 154 ft 8 kts 108°
2026-05-06 12:58 52.35097 13.48698 154 ft 9 kts 96°
2026-05-06 12:58 52.35091 13.48803 154 ft 10 kts 104°
2026-05-06 12:58 52.35066 13.48939 154 ft 13 kts 110°
2026-05-06 12:58 52.35069 13.49041 154 ft 0 kts 72°
2026-05-06 12:59 52.35069 13.49042 154 ft 0 kts 72°
2026-05-06 12:59 52.35133 13.49311 154 ft 61 kts 69°
2026-05-06 12:59 52.35368 13.50299 155 ft 123 kts 68°
2026-05-06 13:00 52.35747 13.51860 159 ft 171 kts 67°
2026-05-06 13:00 52.36133 13.53726 677 ft 175 kts 72°
2026-05-06 13:00 52.36342 13.55707 1336 ft 182 kts 95°
2026-05-06 13:00 52.35714 13.57589 1725 ft 205 kts 142°
2026-05-06 13:01 52.34342 13.58186 2311 ft 211 kts 189°
2026-05-06 13:01 52.33078 13.57077 3005 ft 209 kts 225°
2026-05-06 13:01 52.32031 13.55297 3444 ft 229 kts 226°
2026-05-06 13:01 52.30796 13.53451 3855 ft 253 kts 222°
2026-05-06 13:02 52.29386 13.51582 4500 ft 266 kts 219°
2026-05-06 13:02 52.27924 13.49691 5396 ft 268 kts 224°
2026-05-06 13:02 52.26801 13.47313 6414 ft 263 kts 245°
2026-05-06 13:02 52.26312 13.44468 7365 ft 262 kts 264°
2026-05-06 13:03 52.26228 13.41478 8218 ft 265 kts 264°
2026-05-06 13:03 52.25864 13.38540 9065 ft 267 kts 248°
2026-05-06 13:03 52.25122 13.35760 9935 ft 268 kts 245°
2026-05-06 13:03 52.24309 13.32877 10238 ft 291 kts 245°
2026-05-06 13:04 52.23449 13.29829 10622 ft 306 kts 245°
2026-05-06 13:04 52.22542 13.26599 11304 ft 311 kts 245°
2026-05-06 13:04 52.21641 13.23368 12037 ft 315 kts 245°
2026-05-06 13:04 52.20735 13.20091 12751 ft 319 kts 245°
2026-05-06 13:05 52.19785 13.16809 13457 ft 322 kts 239°
2026-05-06 13:05 52.18351 13.14068 14065 ft 326 kts 219°
2026-05-06 13:05 52.16457 13.11996 14704 ft 329 kts 213°
2026-05-06 13:05 52.14516 13.09997 15368 ft 331 kts 213°
2026-05-06 13:06 52.12562 13.07999 16042 ft 333 kts 213°
2026-05-06 13:06 52.10592 13.05983 16699 ft 336 kts 213°
2026-05-06 13:06 52.08610 13.03954 17342 ft 338 kts 213°
2026-05-06 13:06 52.06614 13.01912 17981 ft 340 kts 213°
2026-05-06 13:07 52.04600 12.99856 18523 ft 343 kts 213°
2026-05-06 13:07 52.02573 12.97788 19082 ft 345 kts 213°
2026-05-06 13:07 52.00538 12.95710 19629 ft 347 kts 213°
2026-05-06 13:07 51.98484 12.93616 20174 ft 350 kts 213°
2026-05-06 13:08 51.96416 12.91509 20721 ft 352 kts 213°
2026-05-06 13:08 51.94330 12.89382 21250 ft 355 kts 214°
2026-05-06 13:08 51.92233 12.87244 21781 ft 358 kts 214°
2026-05-06 13:08 51.90115 12.85090 22314 ft 361 kts 214°
2026-05-06 13:09 51.87986 12.82927 22840 ft 363 kts 214°
2026-05-06 13:09 51.85835 12.80745 23337 ft 366 kts 214°
2026-05-06 13:09 51.83669 12.78552 23777 ft 368 kts 214°
2026-05-06 13:09 51.81490 12.76348 24209 ft 370 kts 214°
2026-05-06 13:10 51.79307 12.74142 24654 ft 371 kts 214°
2026-05-06 13:10 51.77114 12.71928 25095 ft 372 kts 213°
2026-05-06 13:10 51.74920 12.69717 25553 ft 373 kts 213°
2026-05-06 13:10 51.72707 12.67489 25944 ft 375 kts 213°
2026-05-06 13:11 51.70490 12.65259 26364 ft 377 kts 213°
2026-05-06 13:11 51.68264 12.63022 26785 ft 378 kts 213°
2026-05-06 13:11 51.66027 12.60777 27210 ft 379 kts 213°
2026-05-06 13:11 51.63782 12.58533 27634 ft 380 kts 213°
2026-05-06 13:12 51.61530 12.56285 28057 ft 382 kts 213°
2026-05-06 13:12 51.59272 12.54030 28517 ft 382 kts 213°
2026-05-06 13:12 51.57019 12.51782 28966 ft 382 kts 213°
2026-05-06 13:12 51.54758 12.49526 29381 ft 383 kts 213°
2026-05-06 13:13 51.52498 12.47268 29775 ft 384 kts 213°
2026-05-06 13:13 51.50227 12.45005 30085 ft 385 kts 213°
2026-05-06 13:13 51.47941 12.42733 30350 ft 388 kts 213°
2026-05-06 13:13 51.45639 12.40451 30598 ft 390 kts 213°
2026-05-06 13:14 51.43321 12.38156 30838 ft 393 kts 213°
2026-05-06 13:14 51.40988 12.35845 31107 ft 394 kts 213°
2026-05-06 13:14 51.38658 12.33540 31428 ft 394 kts 213°
2026-05-06 13:14 51.36329 12.31240 31851 ft 392 kts 213°
2026-05-06 13:15 51.34013 12.28956 32221 ft 391 kts 213°
2026-05-06 13:15 51.31694 12.26668 32562 ft 392 kts 213°
2026-05-06 13:15 51.29374 12.24384 32889 ft 392 kts 213°
2026-05-06 13:15 51.27047 12.22098 33213 ft 393 kts 213°
2026-05-06 13:16 51.24722 12.19816 33535 ft 393 kts 213°
2026-05-06 13:16 51.22388 12.17528 33840 ft 393 kts 213°
2026-05-06 13:16 51.20054 12.15240 34087 ft 394 kts 213°
2026-05-06 13:16 51.17715 12.12952 34325 ft 395 kts 213°
2026-05-06 13:17 51.15372 12.10666 34575 ft 395 kts 213°
2026-05-06 13:17 51.13025 12.08376 34809 ft 396 kts 213°
2026-05-06 13:17 51.10675 12.06087 35035 ft 396 kts 213°
2026-05-06 13:17 51.08320 12.03793 35252 ft 397 kts 213°
2026-05-06 13:18 51.05964 12.01498 35453 ft 398 kts 213°
2026-05-06 13:18 51.03601 11.99201 35651 ft 399 kts 213°
2026-05-06 13:18 51.01230 11.96901 35856 ft 399 kts 212°
2026-05-06 13:18 50.98858 11.94605 36042 ft 400 kts 212°
2026-05-06 13:19 50.96477 11.92304 36243 ft 401 kts 212°
2026-05-06 13:19 50.94092 11.90002 36411 ft 401 kts 212°
2026-05-06 13:19 50.91713 11.87705 36606 ft 401 kts 212°
2026-05-06 13:19 50.89325 11.85402 36729 ft 402 kts 212°
2026-05-06 13:20 50.86941 11.83107 36769 ft 401 kts 212°
2026-05-06 13:20 50.82181 11.78520 36763 ft 401 kts 212°
2026-05-06 13:21 50.77408 11.73945 36774 ft 401 kts 212°
2026-05-06 13:21 50.72636 11.69379 36769 ft 400 kts 212°
2026-05-06 13:22 50.67874 11.64837 36764 ft 400 kts 212°
2026-05-06 13:22 50.63113 11.60310 36774 ft 400 kts 212°
2026-05-06 13:23 50.58352 11.55792 36768 ft 399 kts 212°
2026-05-06 13:23 50.53624 11.51311 36775 ft 399 kts 212°
2026-05-06 13:24 50.48867 11.46812 36775 ft 399 kts 212°
2026-05-06 13:24 50.44104 11.42317 36781 ft 399 kts 212°
2026-05-06 13:25 50.39309 11.37799 36778 ft 399 kts 212°
2026-05-06 13:25 50.34574 11.33358 36779 ft 399 kts 211°
2026-05-06 13:26 50.29772 11.28867 36780 ft 399 kts 211°
2026-05-06 13:26 50.25000 11.24415 36777 ft 399 kts 211°
2026-05-06 13:27 50.20264 11.20000 36782 ft 399 kts 211°
2026-05-06 13:27 50.15490 11.15567 36777 ft 399 kts 211°
2026-05-06 13:28 50.10717 11.11139 36767 ft 399 kts 211°
2026-05-06 13:28 50.05934 11.06706 36771 ft 400 kts 211°
2026-05-06 13:29 50.01143 11.02280 36764 ft 401 kts 211°
2026-05-06 13:29 49.96341 10.97853 36780 ft 402 kts 211°
2026-05-06 13:30 49.91533 10.93438 36779 ft 402 kts 211°
2026-05-06 13:30 49.86714 10.89023 36767 ft 402 kts 211°
2026-05-06 13:31 49.81893 10.84608 36767 ft 403 kts 211°
2026-05-06 13:31 49.77071 10.80207 36776 ft 403 kts 211°
2026-05-06 13:32 49.72236 10.75805 36775 ft 403 kts 211°
2026-05-06 13:32 49.67400 10.71413 36774 ft 403 kts 211°
2026-05-06 13:33 49.62555 10.67032 36783 ft 403 kts 211°
2026-05-06 13:33 49.57711 10.62658 36791 ft 404 kts 211°
2026-05-06 13:34 49.52879 10.58288 36784 ft 402 kts 211°
2026-05-06 13:34 49.48049 10.53932 36785 ft 402 kts 211°
2026-05-06 13:35 49.43215 10.49594 36792 ft 402 kts 211°
2026-05-06 13:35 49.38388 10.45284 36795 ft 401 kts 211°
2026-05-06 13:36 49.33568 10.40977 36800 ft 401 kts 211°
2026-05-06 13:36 49.28751 10.36679 36820 ft 401 kts 211°
2026-05-06 13:37 49.23939 10.32405 36820 ft 399 kts 211°
2026-05-06 13:37 49.19142 10.28143 36834 ft 398 kts 211°
2026-05-06 13:38 49.14496 10.23586 36827 ft 397 kts 220°
2026-05-06 13:38 49.10829 10.17305 36847 ft 397 kts 230°
2026-05-06 13:39 49.07365 10.10725 36813 ft 398 kts 229°
2026-05-06 13:39 49.03910 10.04190 36810 ft 398 kts 229°
2026-05-06 13:40 49.00430 9.97631 36810 ft 398 kts 229°
2026-05-06 13:40 48.96948 9.91086 36808 ft 398 kts 229°
2026-05-06 13:41 48.93466 9.84542 36807 ft 398 kts 229°
2026-05-06 13:41 48.89977 9.78003 36804 ft 398 kts 229°
2026-05-06 13:42 48.86484 9.71490 36797 ft 398 kts 229°
2026-05-06 13:42 48.83575 9.66066 36793 ft 398 kts 229°
2026-05-06 13:43 48.80069 9.59553 36806 ft 399 kts 229°
2026-05-06 13:43 48.76552 9.53036 36794 ft 399 kts 229°
2026-05-06 13:44 48.73036 9.46523 36796 ft 400 kts 229°
2026-05-06 13:44 48.69512 9.40006 36791 ft 400 kts 229°
2026-05-06 13:45 48.65973 9.33498 36807 ft 401 kts 229°
2026-05-06 13:45 48.60693 9.23709 36811 ft 401 kts 231°
2026-05-06 13:46 48.57426 9.16856 36815 ft 402 kts 233°
2026-05-06 13:46 48.54253 9.09887 36826 ft 403 kts 233°
2026-05-06 13:47 48.51037 9.02970 36802 ft 403 kts 233°
2026-05-06 13:47 48.47777 8.96106 36807 ft 403 kts 232°
2026-05-06 13:48 48.44500 8.89261 36799 ft 402 kts 232°
2026-05-06 13:48 48.41236 8.82417 36800 ft 403 kts 232°
2026-05-06 13:49 48.37968 8.75574 36809 ft 403 kts 232°
2026-05-06 13:49 48.34691 8.68739 36810 ft 403 kts 232°
2026-05-06 13:50 48.31405 8.61898 36814 ft 404 kts 232°
2026-05-06 13:50 48.28115 8.55063 36828 ft 404 kts 232°
2026-05-06 13:51 48.24813 8.48239 36824 ft 405 kts 232°
2026-05-06 13:51 48.21497 8.41403 36824 ft 405 kts 232°
2026-05-06 13:52 48.18155 8.34590 36823 ft 405 kts 228°
2026-05-06 13:52 48.13915 8.29132 36828 ft 403 kts 213°
2026-05-06 13:53 48.09197 8.24594 36828 ft 403 kts 213°
2026-05-06 13:53 48.04481 8.20050 36833 ft 404 kts 213°
2026-05-06 13:54 47.99757 8.15503 36841 ft 404 kts 213°
2026-05-06 13:54 47.95034 8.10965 36843 ft 404 kts 213°
2026-05-06 13:55 47.90308 8.06438 36845 ft 403 kts 213°
2026-05-06 13:55 47.85587 8.01928 36853 ft 403 kts 213°
2026-05-06 13:56 47.80863 7.97428 36849 ft 403 kts 213°
2026-05-06 13:56 47.76163 7.92955 36864 ft 403 kts 213°
2026-05-06 13:57 47.71444 7.88473 36868 ft 403 kts 213°
2026-05-06 13:57 47.66716 7.84003 36878 ft 402 kts 213°
2026-05-06 13:58 47.61989 7.79551 36883 ft 402 kts 212°
2026-05-06 13:58 47.57264 7.75108 36893 ft 402 kts 213°
2026-05-06 13:59 47.52546 7.70662 36886 ft 402 kts 213°
2026-05-06 13:59 47.47837 7.66232 36895 ft 401 kts 212°
2026-05-06 14:00 47.43126 7.61823 36901 ft 401 kts 212°
2026-05-06 14:00 47.38413 7.57418 36895 ft 400 kts 212°
2026-05-06 14:01 47.33710 7.53026 36882 ft 400 kts 212°
2026-05-06 14:01 47.29014 7.48647 36905 ft 399 kts 212°
2026-05-06 14:02 47.24310 7.44288 36913 ft 399 kts 212°
2026-05-06 14:02 47.19604 7.39934 36906 ft 400 kts 212°
2026-05-06 14:03 47.15299 7.34811 36901 ft 400 kts 228°
2026-05-06 14:03 47.11826 7.28401 36894 ft 401 kts 230°
2026-05-06 14:04 47.08343 7.22001 36897 ft 402 kts 230°
2026-05-06 14:04 47.04852 7.15596 36900 ft 402 kts 230°
2026-05-06 14:05 47.01367 7.09211 36907 ft 401 kts 230°
2026-05-06 14:05 46.97877 7.02831 36914 ft 401 kts 230°
2026-05-06 14:06 46.94381 6.96468 36935 ft 401 kts 230°
2026-05-06 14:06 46.90772 6.90237 36913 ft 401 kts 222°
2026-05-06 14:07 46.86474 6.85033 36909 ft 402 kts 218°
2026-05-06 14:07 46.82129 6.79856 36908 ft 403 kts 219°
2026-05-06 14:08 46.77783 6.74673 36908 ft 404 kts 219°
2026-05-06 14:08 46.73435 6.69504 36906 ft 403 kts 219°
2026-05-06 14:09 46.69116 6.64388 36911 ft 403 kts 219°
2026-05-06 14:09 46.64762 6.59253 36909 ft 403 kts 218°
2026-05-06 14:10 46.60416 6.54124 36915 ft 402 kts 219°
2026-05-06 14:10 46.56066 6.49006 36919 ft 402 kts 218°
2026-05-06 14:11 46.51714 6.43899 36937 ft 402 kts 218°
2026-05-06 14:11 46.47349 6.38785 36917 ft 404 kts 218°
2026-05-06 14:12 46.42977 6.33667 36912 ft 404 kts 218°
2026-05-06 14:12 46.38594 6.28552 36915 ft 405 kts 218°
2026-05-06 14:13 46.34206 6.23451 36927 ft 405 kts 218°
2026-05-06 14:13 46.29813 6.18360 36934 ft 405 kts 218°
2026-05-06 14:14 46.25129 6.13907 36936 ft 405 kts 204°
2026-05-06 14:14 46.19658 6.11954 36926 ft 407 kts 191°
2026-05-06 14:15 46.14052 6.10715 36927 ft 408 kts 191°
2026-05-06 14:15 46.08441 6.09454 36928 ft 408 kts 191°
2026-05-06 14:16 46.02825 6.08203 36935 ft 409 kts 191°
2026-05-06 14:16 45.97200 6.06971 36927 ft 409 kts 191°
2026-05-06 14:17 45.91578 6.05734 36938 ft 409 kts 191°
2026-05-06 14:17 45.85958 6.04494 36941 ft 408 kts 191°
2026-05-06 14:18 45.80377 6.03260 36935 ft 408 kts 192°
2026-05-06 14:18 45.74760 6.02018 36938 ft 409 kts 192°
2026-05-06 14:19 45.69139 6.00778 36940 ft 409 kts 192°
2026-05-06 14:19 45.63484 5.99529 36955 ft 409 kts 192°
2026-05-06 14:20 45.57860 5.98297 36954 ft 408 kts 192°
2026-05-06 14:20 45.52247 5.97073 36955 ft 408 kts 192°
2026-05-06 14:21 45.46681 5.95838 36958 ft 407 kts 193°
2026-05-06 14:21 45.41145 5.94197 36941 ft 405 kts 196°
2026-05-06 14:22 45.35657 5.92357 36946 ft 405 kts 196°
2026-05-06 14:22 45.30167 5.90568 36941 ft 404 kts 195°
2026-05-06 14:23 45.24664 5.88854 36943 ft 405 kts 195°
2026-05-06 14:23 45.19157 5.87163 36933 ft 408 kts 195°
2026-05-06 14:24 45.13544 5.85428 36932 ft 416 kts 195°
2026-05-06 14:24 45.07867 5.83667 36926 ft 417 kts 195°
2026-05-06 14:25 45.02191 5.81909 36923 ft 418 kts 196°
2026-05-06 14:25 44.96514 5.80166 36927 ft 417 kts 195°
2026-05-06 14:26 44.90843 5.78429 36923 ft 417 kts 195°
2026-05-06 14:26 44.85168 5.76693 36924 ft 417 kts 195°
2026-05-06 14:27 44.80456 5.75249 36927 ft 417 kts 196°
2026-05-06 14:27 44.74786 5.73510 36933 ft 416 kts 195°
2026-05-06 14:28 44.69123 5.71792 36934 ft 416 kts 195°
2026-05-06 14:28 44.63460 5.70075 36939 ft 417 kts 195°
2026-05-06 14:29 44.57775 5.68337 36922 ft 418 kts 195°
2026-05-06 14:29 44.52081 5.66605 36920 ft 419 kts 195°
2026-05-06 14:30 44.49475 5.65815 36916 ft 419 kts 195°
2026-05-06 14:30 44.43766 5.64086 36913 ft 420 kts 195°
2026-05-06 14:31 44.38070 5.62306 36921 ft 418 kts 200°
2026-05-06 14:31 44.32666 5.59436 36924 ft 415 kts 204°
2026-05-06 14:32 44.27287 5.56476 36900 ft 416 kts 204°
2026-05-06 14:32 44.21903 5.53530 36918 ft 416 kts 204°
2026-05-06 14:33 44.16521 5.50598 36914 ft 415 kts 204°
2026-05-06 14:33 44.11146 5.47671 36924 ft 415 kts 204°
2026-05-06 14:34 44.05771 5.44752 36907 ft 414 kts 204°
2026-05-06 14:34 44.00409 5.41834 36911 ft 414 kts 204°
2026-05-06 14:35 43.95050 5.38932 36914 ft 413 kts 204°
2026-05-06 14:35 43.89694 5.36041 36896 ft 413 kts 205°
2026-05-06 14:36 43.84341 5.33160 36937 ft 412 kts 204°
2026-05-06 14:36 43.78987 5.30283 36931 ft 413 kts 204°
2026-05-06 14:37 43.73632 5.27397 36914 ft 414 kts 205°
2026-05-06 14:37 43.68254 5.24504 36889 ft 415 kts 205°
2026-05-06 14:38 43.62867 5.21620 36898 ft 416 kts 205°
2026-05-06 14:38 43.57478 5.18735 36902 ft 416 kts 205°
2026-05-06 14:39 43.52087 5.15849 36907 ft 416 kts 205°
2026-05-06 14:39 43.46692 5.12969 36909 ft 416 kts 205°
2026-05-06 14:40 43.41293 5.10104 36920 ft 416 kts 205°
2026-05-06 14:40 43.36233 5.06427 36925 ft 410 kts 217°
2026-05-06 14:41 43.31534 5.01979 36905 ft 410 kts 217°
2026-05-06 14:41 43.26828 4.97549 36925 ft 410 kts 217°
2026-05-06 14:42 43.22121 4.93130 36951 ft 410 kts 217°
2026-05-06 14:42 43.17412 4.88710 36947 ft 410 kts 217°
2026-05-06 14:43 43.12702 4.84302 36946 ft 410 kts 217°
2026-05-06 14:43 43.07978 4.79901 36934 ft 410 kts 217°
2026-05-06 14:44 43.03495 4.75134 36939 ft 407 kts 223°
2026-05-06 14:45 42.97136 4.67419 36944 ft 408 kts 223°
2026-05-06 14:45 42.92880 4.62280 36938 ft 408 kts 223°
2026-05-06 14:46 42.88625 4.57162 36960 ft 407 kts 223°
2026-05-06 14:46 42.84363 4.52036 36953 ft 409 kts 223°
2026-05-06 14:47 42.80086 4.46907 36950 ft 410 kts 223°
2026-05-06 14:47 42.75802 4.41781 36953 ft 410 kts 223°
2026-05-06 14:48 42.71532 4.36668 36249 ft 408 kts 223°
2026-05-06 14:48 42.69413 4.34137 35362 ft 404 kts 223°
2026-05-06 14:48 42.67334 4.31657 34620 ft 402 kts 223°
2026-05-06 14:48 42.65208 4.29126 33904 ft 400 kts 223°
2026-05-06 14:49 42.63155 4.26684 33099 ft 394 kts 223°
2026-05-06 14:49 42.61118 4.24262 32291 ft 385 kts 223°
2026-05-06 14:49 42.59127 4.21896 31527 ft 376 kts 223°
2026-05-06 14:49 42.57180 4.19591 30781 ft 368 kts 223°
2026-05-06 14:50 42.55274 4.17332 30132 ft 359 kts 223°
2026-05-06 14:50 42.53418 4.15133 29396 ft 350 kts 224°
2026-05-06 14:50 42.51612 4.12995 28693 ft 341 kts 224°
2026-05-06 14:50 42.49848 4.10904 28010 ft 333 kts 224°
2026-05-06 14:51 42.48116 4.08851 27344 ft 327 kts 224°
2026-05-06 14:51 42.46417 4.06838 26696 ft 322 kts 224°
2026-05-06 14:51 42.44745 4.04861 26055 ft 317 kts 224°
2026-05-06 14:51 42.43096 4.02917 25432 ft 313 kts 224°
2026-05-06 14:52 42.41462 4.00994 24824 ft 310 kts 224°
2026-05-06 14:52 42.39843 3.99088 24227 ft 307 kts 224°
2026-05-06 14:52 42.38233 3.97188 23650 ft 309 kts 224°
2026-05-06 14:52 42.36609 3.95272 22995 ft 312 kts 224°
2026-05-06 14:53 42.34960 3.93330 22297 ft 316 kts 224°
2026-05-06 14:53 42.33295 3.91373 21601 ft 319 kts 224°
2026-05-06 14:53 42.31609 3.89394 20951 ft 323 kts 224°
2026-05-06 14:53 42.29904 3.87400 20314 ft 326 kts 224°
2026-05-06 14:54 42.28184 3.85386 19695 ft 329 kts 224°
2026-05-06 14:54 42.26448 3.83359 19086 ft 331 kts 223°
2026-05-06 14:54 42.24697 3.81317 18493 ft 334 kts 223°
2026-05-06 14:54 42.22931 3.79255 17849 ft 338 kts 223°
2026-05-06 14:55 42.21147 3.77168 17174 ft 341 kts 223°
2026-05-06 14:55 42.19351 3.75065 16515 ft 344 kts 223°
2026-05-06 14:55 42.17535 3.72946 15872 ft 346 kts 222°
2026-05-06 14:55 42.15705 3.70818 15245 ft 349 kts 222°
2026-05-06 14:56 42.13863 3.68673 14617 ft 350 kts 222°
2026-05-06 14:56 42.12019 3.66516 14004 ft 352 kts 222°
2026-05-06 14:56 42.10172 3.64356 13361 ft 352 kts 223°
2026-05-06 14:56 42.08572 3.61875 12695 ft 350 kts 237°
2026-05-06 14:57 42.07450 3.58987 12117 ft 347 kts 247°
2026-05-06 14:57 42.06499 3.56067 11948 ft 333 kts 247°
2026-05-06 14:57 42.05583 3.53294 11953 ft 315 kts 247°
2026-05-06 14:57 42.04713 3.50678 11957 ft 299 kts 246°
2026-05-06 14:58 42.03879 3.48173 11962 ft 289 kts 247°
2026-05-06 14:58 42.03063 3.45724 11959 ft 286 kts 246°
2026-05-06 14:58 42.02258 3.43324 11960 ft 285 kts 246°
2026-05-06 14:58 42.01447 3.40898 11962 ft 285 kts 246°
2026-05-06 14:59 42.00628 3.38438 11963 ft 284 kts 247°
2026-05-06 14:59 41.99831 3.36044 11963 ft 284 kts 246°
2026-05-06 14:59 41.99023 3.33617 11954 ft 285 kts 246°
2026-05-06 14:59 41.98213 3.31191 11954 ft 285 kts 246°
2026-05-06 15:00 41.97402 3.28766 11960 ft 284 kts 246°
2026-05-06 15:00 41.96590 3.26343 11960 ft 284 kts 246°
2026-05-06 15:00 41.95781 3.23922 11956 ft 284 kts 246°
2026-05-06 15:00 41.94963 3.21507 11959 ft 284 kts 244°
2026-05-06 15:01 41.93906 3.19255 11947 ft 286 kts 235°
2026-05-06 15:01 41.92750 3.17090 11951 ft 285 kts 236°
2026-05-06 15:01 41.91595 3.14919 11952 ft 285 kts 236°
2026-05-06 15:01 41.90443 3.12750 11953 ft 285 kts 236°
2026-05-06 15:02 41.89290 3.10584 11950 ft 285 kts 236°
2026-05-06 15:02 41.88137 3.08417 11951 ft 285 kts 236°
2026-05-06 15:02 41.86984 3.06251 11947 ft 285 kts 236°
2026-05-06 15:02 41.85832 3.04089 11945 ft 284 kts 236°
2026-05-06 15:03 41.84688 3.01947 11946 ft 281 kts 237°
2026-05-06 15:03 41.83546 2.99809 11946 ft 283 kts 236°
2026-05-06 15:03 41.82401 2.97670 11945 ft 283 kts 236°
2026-05-06 15:03 41.81253 2.95526 11945 ft 283 kts 236°
2026-05-06 15:04 41.80110 2.93391 11773 ft 280 kts 236°
2026-05-06 15:04 41.78979 2.91281 11412 ft 279 kts 237°
2026-05-06 15:04 41.77852 2.89178 11070 ft 277 kts 236°
2026-05-06 15:04 41.76727 2.87082 10700 ft 276 kts 237°
2026-05-06 15:05 41.75601 2.84991 10293 ft 277 kts 236°
2026-05-06 15:05 41.74276 2.83117 9963 ft 278 kts 224°
2026-05-06 15:05 41.72725 2.81543 9527 ft 280 kts 219°
2026-05-06 15:05 41.71141 2.80029 9099 ft 280 kts 218°
2026-05-06 15:06 41.69562 2.78519 8713 ft 278 kts 218°
2026-05-06 15:06 41.68009 2.77002 8343 ft 275 kts 220°
2026-05-06 15:06 41.66495 2.75450 7966 ft 273 kts 220°
2026-05-06 15:06 41.64991 2.73907 7597 ft 272 kts 220°
2026-05-06 15:07 41.63498 2.72376 7233 ft 269 kts 220°
2026-05-06 15:07 41.62015 2.70863 6862 ft 268 kts 220°
2026-05-06 15:07 41.60545 2.69346 6490 ft 266 kts 220°
2026-05-06 15:07 41.59091 2.67832 6091 ft 264 kts 220°
2026-05-06 15:08 41.57641 2.66335 5713 ft 262 kts 220°
2026-05-06 15:08 41.56199 2.64874 5433 ft 255 kts 220°
2026-05-06 15:08 41.54812 2.63489 5307 ft 243 kts 220°
2026-05-06 15:08 41.53484 2.62175 5177 ft 232 kts 219°
2026-05-06 15:09 41.52226 2.60911 5006 ft 223 kts 220°
2026-05-06 15:09 41.51003 2.59663 4701 ft 221 kts 220°
2026-05-06 15:09 41.49840 2.58336 4387 ft 218 kts 228°
2026-05-06 15:09 41.48790 2.56897 4093 ft 216 kts 229°
2026-05-06 15:10 41.47755 2.55440 3789 ft 216 kts 229°
2026-05-06 15:10 41.46732 2.53990 3523 ft 213 kts 229°
2026-05-06 15:10 41.46059 2.53036 3323 ft 213 kts 229°
2026-05-06 15:10 41.45045 2.51601 3020 ft 213 kts 228°
2026-05-06 15:11 41.43886 2.49521 2638 ft 210 kts 241°
2026-05-06 15:11 41.43273 2.47756 2354 ft 209 kts 244°
2026-05-06 15:11 41.42669 2.45983 2300 ft 211 kts 244°
2026-05-06 15:11 41.42066 2.44204 2306 ft 210 kts 243°
2026-05-06 15:12 41.41462 2.42418 2304 ft 213 kts 244°
2026-05-06 15:12 41.41052 2.41206 2306 ft 212 kts 244°
2026-05-06 15:12 41.40461 2.39455 2301 ft 200 kts 244°
2026-05-06 15:12 41.39912 2.37830 2297 ft 185 kts 244°
2026-05-06 15:13 41.39409 2.36344 2298 ft 168 kts 244°
2026-05-06 15:13 41.38934 2.34945 2303 ft 164 kts 244°
2026-05-06 15:13 41.38473 2.33586 2359 ft 161 kts 244°
2026-05-06 15:13 41.38019 2.32248 2314 ft 158 kts 244°
2026-05-06 15:14 41.37563 2.30904 2314 ft 159 kts 244°
2026-05-06 15:14 41.37107 2.29561 2310 ft 159 kts 244°
2026-05-06 15:14 41.36654 2.28226 2309 ft 160 kts 243°
2026-05-06 15:14 41.36190 2.26862 2309 ft 160 kts 244°
2026-05-06 15:15 41.35737 2.25528 2310 ft 158 kts 242°
2026-05-06 15:15 41.35292 2.24218 2220 ft 158 kts 243°
2026-05-06 15:15 41.34833 2.22872 2040 ft 161 kts 243°
2026-05-06 15:15 41.34375 2.21524 1854 ft 159 kts 242°
2026-05-06 15:16 41.33920 2.20187 1653 ft 158 kts 241°
2026-05-06 15:16 41.33469 2.18865 1433 ft 155 kts 240°
2026-05-06 15:16 41.33043 2.17610 1219 ft 140 kts 242°
2026-05-06 15:16 41.32655 2.16473 1045 ft 132 kts 243°
2026-05-06 15:17 41.32276 2.15373 819 ft 131 kts 244°
2026-05-06 15:17 41.31920 2.14275 662 ft 129 kts 244°
2026-05-06 15:17 41.31561 2.13176 519 ft 131 kts 240°
2026-05-06 15:17 41.31180 2.12082 380 ft 129 kts 241°
2026-05-06 15:18 41.30794 2.10994 206 ft 130 kts 244°
2026-05-06 15:18 41.30422 2.09910 52 ft 127 kts 241°
2026-05-06 15:18 41.30058 2.08853 20 ft 117 kts 244°
2026-05-06 15:18 41.29845 2.08232 21 ft 30 kts 244°
2026-05-06 15:19 41.29825 2.08170 18 ft 11 kts 245°
2026-05-06 15:19 41.29782 2.08049 18 ft 15 kts 247°
2026-05-06 15:19 41.29760 2.07925 17 ft 14 kts 260°
2026-05-06 15:19 41.29752 2.07796 17 ft 14 kts 271°
2026-05-06 15:20 41.29764 2.07667 18 ft 14 kts 293°
2026-05-06 15:20 41.29841 2.07588 18 ft 14 kts 336°
2026-05-06 15:20 41.29853 2.07581 18 ft 1 kts 336°
2026-05-06 15:20 41.29860 2.07577 18 ft 2 kts 336°
2026-05-06 15:21 41.29867 2.07572 18 ft 0 kts 336°
2026-05-06 15:21 41.29868 2.07572 18 ft 0 kts 336°
2026-05-06 15:22 41.29873 2.07569 18 ft 1 kts 336°
2026-05-06 15:22 41.29905 2.07550 18 ft 10 kts 336°
2026-05-06 15:22 41.29981 2.07547 18 ft 16 kts 38°
2026-05-06 15:22 41.30048 2.07711 18 ft 25 kts 65°
2026-05-06 15:23 41.30117 2.07910 19 ft 20 kts 65°
2026-05-06 15:23 41.30161 2.08040 20 ft 9 kts 65°
2026-05-06 15:23 41.30182 2.08102 18 ft 0 kts 66°
2026-05-06 15:23 41.30183 2.08102 18 ft 1 kts 66°
2026-05-06 15:24 41.30189 2.08124 19 ft 3 kts 67°
2026-05-06 15:24 41.30204 2.08168 19 ft 7 kts 64°
2026-05-06 15:24 41.30231 2.08211 18 ft 5 kts 37°
2026-05-06 15:24 41.30256 2.08223 18 ft 3 kts 13°
2026-05-06 15:25 41.30272 2.08228 18 ft 1 kts 12°
2026-05-06 15:25 41.30283 2.08232 19 ft 2 kts 13°
2026-05-06 15:25 41.30294 2.08235 19 ft 1 kts 13°
2026-05-06 15:25 41.30308 2.08239 18 ft 2 kts 13°
2026-05-06 15:26 41.30310 2.08240 18 ft 0 kts 13°
2026-05-06 15:26 41.30311 2.08240 18 ft 0 kts 13°